Waarnemingen

Advertentie
Mijn weer
Pembrey Sands, Groot Brittannië (3605): temperatuur & dauwpunt: 11.12.2018 19:00:00 - 17.12.2018 19:00:00 (GMT)Pembrey Sands, Groot Brittannië (3605): windsnelheid & windstoten: 11.12.2018 19:00:00 - 17.12.2018 19:00:00 (GMT)Pembrey Sands, Groot Brittannië (3605): windrichting: 11.12.2018 19:00:00 - 17.12.2018 19:00:00 (GMT)Pembrey Sands, Groot Brittannië (3605): luchtdruk: 11.12.2018 19:00:00 - 17.12.2018 19:00:00 (GMT)Pembrey Sands, Groot Brittannië (3605): zicht: 11.12.2018 19:00:00 - 17.12.2018 19:00:00 (GMT)Pembrey Sands, Groot Brittannië (3605): neerslag: 11.12.2018 19:00:00 - 17.12.2018 19:00:00 (GMT)
Datum & Tijd tt [°C] td [°C] ff [km/u] ff [kn] fx [km/u] fx [kn] dd ppp [hPa] vv [km] rr [mm]
17.12.2018 19:00:00 10,5 9,0 34 18 - - Z 1013,1 6 0,0
17.12.2018 18:00:00 10,7 9,0 39 21 - - Z 1013,2 6 0,0
17.12.2018 17:00:00 10,7 8,8 39 21 55 30 Z 1013,2 8 0,0
17.12.2018 16:00:00 10,7 8,8 44 24 54 29 Z 1013,6 7 0,0
17.12.2018 15:00:00 10,6 8,7 44 24 54 29 Z 1013,8 7 0,0
17.12.2018 14:00:00 10,3 8,6 39 21 46 25 Z 1014,0 6 0,0
17.12.2018 13:00:00 10,1 8,5 35 19 - - Z 1014,5 7 0,0
17.12.2018 12:00:00 9,3 8,1 28 15 - - ZZO 1015,4 4,0 0,0
17.12.2018 11:00:00 9,1 7,9 34 18 - - Z 1015,6 7 0,0
17.12.2018 10:00:00 8,7 8,2 28 15 - - Z 1015,5 5 0,2
17.12.2018 09:00:00 4,4 4,3 15 8 - - ZZO 1015,1 6 0,0
17.12.2018 08:00:00 -0,5 -0,9 8 4 - - ZO 1014,9 9 0,0
17.12.2018 07:00:00 -0,2 -0,6 5 3 - - ZZO 1014,5 11 0,0
17.12.2018 06:00:00 0,5 0,1 4 2 - - ONO 1013,9 9 0,0
17.12.2018 05:00:00 -0,5 -1,0 4 2 - - OZO 1012,9 11 0,0
17.12.2018 04:00:00 -0,5 -1,0 4 2 - - NO 1012,6 10 0,0
17.12.2018 03:00:00 -0,5 -1,1 4 2 - - NW 1011,9 10 0,0
17.12.2018 02:00:00 0,1 -0,6 2 1 - - WNW 1011,0 12 0,0
17.12.2018 01:00:00 0,5 -0,2 2 1 - - ZW 1010,2 13 0,0
17.12.2018 00:00:00 1,0 0,2 5 3 - - NNO 1009,7 10 0,0
16.12.2018 23:00:00 3,0 1,9 9 5 - - W 1008,6 8 0,0
16.12.2018 22:00:00 4,8 3,3 9 5 - - W 1007,9 6 0,0
16.12.2018 21:00:00 6,7 5,3 16 9 - - W 1006,9 13 0,0
16.12.2018 20:00:00 6,9 5,3 26 14 - - W 1005,6 18 0,0
16.12.2018 19:00:00 7,9 5,9 31 17 - - W 1004,3 19 0,0
16.12.2018 18:00:00 8,2 6,8 28 15 - - W 1003,1 17 0,0
16.12.2018 17:00:00 7,9 6,6 26 14 52 28 WZW 1001,9 12 0,4
16.12.2018 16:00:00 8,4 7,5 34 18 54 29 Z 1001,2 10 1,4
16.12.2018 15:00:00 7,9 6,7 22 12 - - ZO 1000,8 8 0,4
16.12.2018 14:00:00 8,1 6,3 42 23 63 34 Z 1001,2 8 0,2
16.12.2018 13:00:00 9,3 7,1 28 15 - - ZZO 1001,4 7 0,0
16.12.2018 12:00:00 9,1 7,2 34 18 - - ZZO 1002,2 6 0,0
16.12.2018 11:00:00 8,8 7,2 29 16 - - Z 1002,9 7 0,0
16.12.2018 10:00:00 8,4 7,1 31 17 48 26 Z 1003,4 6 1,8
16.12.2018 09:00:00 7,8 6,3 15 8 - - ZZO 1003,7 4,6 0,0
16.12.2018 08:00:00 8,3 6,3 15 8 52 28 ZZW 1003,5 5 0,0
16.12.2018 07:00:00 8,7 5,9 28 15 - - ZZW 1003,6 9 0,0
16.12.2018 06:00:00 8,8 5,9 28 15 - - ZW 1003,5 11 0,0
16.12.2018 05:00:00 9,2 5,8 31 17 - - WZW 1003,5 11 0,0
16.12.2018 04:00:00 8,9 5,8 22 12 - - WZW 1003,7 8 0,0
16.12.2018 03:00:00 8,8 5,5 24 13 - - W 1003,3 7 0,0
16.12.2018 02:00:00 9,2 5,7 35 19 50 27 W 1003,0 8 0,0
16.12.2018 01:00:00 9,2 6,5 39 21 55 30 WZW 1002,4 7 0,4
16.12.2018 00:00:00 8,6 6,1 42 23 72 39 W 1002,0 7 1,0
15.12.2018 23:00:00 9,7 5,2 39 21 54 29 W 1001,4 9 0,0
15.12.2018 22:00:00 9,5 4,9 44 24 65 35 W 1000,9 8 0,0
15.12.2018 21:00:00 9,2 4,9 50 27 83 45 W 999,8 8 0,0
15.12.2018 20:00:00 9,6 5,7 67 36 96 52 WZW 998,1 9 0,0
15.12.2018 19:00:00 9,8 6,2 81 44 109 59 WZW 996,4 9 0,4
15.12.2018 18:00:00 10,1 6,8 89 48 115 62 ZW 995,0 7 0,0
15.12.2018 17:00:00 10,4 6,9 81 44 113 61 ZZW 994,7 8 0,0
15.12.2018 16:00:00 10,5 10,0 52 28 78 42 Z 994,7 6 3,8
15.12.2018 15:00:00 6,8 6,3 41 22 78 42 OZO 994,2 2,0 5,0
15.12.2018 14:00:00 6,6 6,0 41 22 72 39 OZO 996,1 11 2,0
15.12.2018 13:00:00 6,9 6,2 37 20 65 35 OZO 999,0 1,3 1,6
15.12.2018 12:00:00 6,6 6,0 35 19 72 39 OZO 1001,0 3,4 2,0
15.12.2018 11:00:00 6,1 5,2 46 25 68 37 OZO 1002,6 7 0,2
15.12.2018 10:00:00 5,0 4,3 35 19 65 35 OZO 1004,5 11 0,0
15.12.2018 09:00:00 4,5 3,7 46 25 70 38 OZO 1005,4 5 0,0
15.12.2018 08:00:00 4,1 3,1 39 21 68 37 OZO 1006,6 5 0,6
15.12.2018 07:00:00 4,1 2,5 42 23 68 37 OZO 1007,8 6 0,0
15.12.2018 06:00:00 4,4 1,8 42 23 74 40 OZO 1008,6 11 0,0
15.12.2018 05:00:00 4,3 1,5 42 23 74 40 OZO 1009,3 12 0,0
15.12.2018 04:00:00 4,4 1,4 39 21 68 37 OZO 1010,9 12 0,0
15.12.2018 03:00:00 4,4 2,1 34 18 55 30 OZO 1012,3 10 0,2
15.12.2018 02:00:00 5,1 1,2 28 15 50 27 OZO 1013,8 14 0,0
15.12.2018 01:00:00 5,1 1,1 29 16 52 28 OZO 1014,7 15 0,0
15.12.2018 00:00:00 8,6 6,1 42 23 72 39 W 1002,0 7 0,0
14.12.2018 23:00:00 5,0 1,1 26 14 50 27 ZO 1016,3 14 0,0
14.12.2018 22:00:00 4,9 1,1 31 17 50 27 OZO 1016,9 14 0,0
14.12.2018 21:00:00 4,9 1,1 26 14 46 25 OZO 1017,5 14 0,0
14.12.2018 20:00:00 4,6 1,0 29 16 - - OZO 1018,1 14 0,0
14.12.2018 19:00:00 4,8 1,2 24 13 46 25 OZO 1018,8 14 0,0
14.12.2018 18:00:00 4,8 0,6 29 16 46 25 OZO 1018,2 14 0,0
14.12.2018 17:00:00 5,0 0,8 24 13 - - OZO 1018,8 15 0,0
14.12.2018 16:00:00 5,0 0,8 21 11 - - OZO 1019,5 15 0,0
14.12.2018 15:00:00 5,3 0,8 24 13 - - ZO 1019,7 15 0,0
14.12.2018 14:00:00 5,3 0,8 24 13 - - ZO 1019,6 15 0,0
14.12.2018 13:00:00 4,8 0,2 26 14 - - OZO 1019,7 14 0,0
14.12.2018 12:00:00 4,3 0,1 24 13 - - OZO 1020,5 13 0,0
14.12.2018 11:00:00 3,7 -0,3 26 14 - - ZO 1020,8 13 0,0
14.12.2018 10:00:00 2,9 -0,5 21 11 - - OZO 1021,0 12 0,0
14.12.2018 09:00:00 2,0 -0,9 18 10 - - O 1020,5 11 0,0
14.12.2018 08:00:00 1,8 -1,2 21 11 - - O 1020,0 12 0,0
14.12.2018 07:00:00 1,7 -1,4 16 9 - - OZO 1019,8 14 0,0
14.12.2018 06:00:00 2,2 -1,8 21 11 - - O 1019,2 16 0,0
14.12.2018 05:00:00 2,2 -1,7 22 12 - - O 1018,7 16 0,0
14.12.2018 04:00:00 1,6 -1,8 16 9 - - O 1019,7 15 0,0
14.12.2018 03:00:00 1,7 -1,8 16 9 - - O 1020,0 15 0,0
14.12.2018 02:00:00 2,0 -1,8 15 8 - - O 1019,5 16 0,0
14.12.2018 01:00:00 2,3 -1,8 18 10 - - O 1018,8 17 0,0
14.12.2018 00:00:00 2,5 -2,2 22 12 52 28 O 1018,3 19 0,0
13.12.2018 23:00:00 2,8 -2,5 21 11 - - O 1018,4 21 0,0
13.12.2018 22:00:00 3,3 -2,4 21 11 - - O 1018,2 24 0,0
13.12.2018 21:00:00 4,3 -1,5 22 12 - - O 1017,8 24 0,0
13.12.2018 20:00:00 4,6 -1,1 22 12 - - OZO 1017,5 23 0,0
13.12.2018 19:00:00 4,9 -0,6 24 13 46 25 OZO 1016,7 24 0,0
13.12.2018 18:00:00 5,1 -0,2 28 15 - - OZO 1016,0 23 0,0
13.12.2018 17:00:00 5,3 0,2 22 12 - - O 1015,1 23 0,0
13.12.2018 16:00:00 5,5 0,5 21 11 - - O 1014,3 23 0,0
13.12.2018 15:00:00 6,1 0,9 26 14 48 26 OZO 1013,1 22 0,0
13.12.2018 14:00:00 5,9 1,1 24 13 52 28 OZO 1012,3 20 0,0
13.12.2018 13:00:00 6,0 0,9 29 16 54 29 OZO 1012,2 20 0,0
13.12.2018 12:00:00 5,8 1,1 29 16 57 31 OZO 1011,8 20 0,0
13.12.2018 11:00:00 5,7 0,9 31 17 54 29 OZO 1011,6 20 0,0
13.12.2018 10:00:00 5,8 0,9 31 17 59 32 OZO 1011,0 21 0,0
13.12.2018 09:00:00 5,6 1,0 28 15 54 29 OZO 1010,6 21 0,0
13.12.2018 08:00:00 5,6 0,8 28 15 52 28 OZO 1009,9 22 0,0
13.12.2018 07:00:00 5,7 0,6 31 17 57 31 OZO 1009,7 23 0,0
13.12.2018 06:00:00 5,9 0,5 31 17 61 33 OZO 1009,2 24 0,0
13.12.2018 05:00:00 5,7 -0,3 29 16 61 33 OZO 1008,9 26 0,0
13.12.2018 04:00:00 5,8 0,0 29 16 57 31 OZO 1009,5 25 0,0
13.12.2018 03:00:00 5,8 0,1 28 15 54 29 OZO 1009,9 25 0,0
13.12.2018 02:00:00 6,2 1,2 29 16 54 29 OZO 1010,2 24 0,0
13.12.2018 01:00:00 6,5 1,9 29 16 55 30 OZO 1010,7 23 0,0
13.12.2018 00:00:00 6,4 2,2 29 16 63 34 OZO 1011,1 22 0,0
12.12.2018 23:00:00 6,5 2,3 31 17 57 31 OZO 1011,3 23 0,0
12.12.2018 22:00:00 6,8 2,9 31 17 59 32 OZO 1012,4 21 0,0
12.12.2018 21:00:00 7,4 4,0 31 17 61 33 ZO 1012,8 19 0,0
12.12.2018 20:00:00 7,2 3,8 26 14 52 28 OZO 1013,2 21 0,0
12.12.2018 19:00:00 7,5 4,0 29 16 59 32 ZO 1013,7 21 0,0
12.12.2018 18:00:00 7,8 3,9 35 19 52 28 ZO 1013,8 24 0,0
12.12.2018 17:00:00 8,0 4,3 31 17 54 29 ZO 1014,3 23 0,0
12.12.2018 16:00:00 8,1 4,8 34 18 57 31 OZO 1014,9 23 0,0
12.12.2018 15:00:00 8,0 5,2 29 16 57 31 OZO 1015,1 23 0,0
12.12.2018 14:00:00 7,8 6,6 24 13 48 26 OZO 1015,9 14 0,2
12.12.2018 13:00:00 7,6 6,9 26 14 - - OZO 1016,4 2,9 2,0
12.12.2018 12:00:00 8,2 7,4 24 13 48 26 OZO 1016,9 2,8 1,0
12.12.2018 11:00:00 8,7 7,4 28 15 50 27 OZO 1017,4 9 0,0
12.12.2018 10:00:00 8,9 7,8 24 13 46 25 OZO 1017,4 13 0,0
12.12.2018 09:00:00 8,7 7,9 15 8 - - OZO 1017,6 4,7 0,0
12.12.2018 08:00:00 8,4 7,6 18 10 - - OZO 1017,5 12 0,2
12.12.2018 07:00:00 8,3 7,5 18 10 - - OZO 1017,5 3,7 0,0
12.12.2018 06:00:00 8,3 7,0 21 11 - - OZO 1017,6 18 0,2
12.12.2018 05:00:00 8,5 7,0 18 10 - - OZO 1017,7 10 0,0
12.12.2018 04:00:00 8,9 6,9 22 12 - - OZO 1017,7 15 0,0
12.12.2018 03:00:00 8,8 6,9 21 11 - - OZO 1017,6 14 0,0
12.12.2018 02:00:00 9,1 6,8 22 12 - - OZO 1017,8 17 0,0
12.12.2018 01:00:00 9,1 7,0 21 11 - - OZO 1017,9 20 0,0
12.12.2018 00:00:00 9,2 6,9 22 12 63 34 OZO 1017,9 16 0,0
11.12.2018 23:00:00 9,3 7,1 22 12 - - ZO 1017,9 7 0,0
11.12.2018 22:00:00 10,0 5,6 24 13 - - ZO 1017,8 25 0,0
11.12.2018 21:00:00 9,9 6,2 24 13 - - ZO 1018,2 21 0,0
11.12.2018 20:00:00 9,9 6,0 28 15 - - ZO 1018,6 19 0,0
11.12.2018 19:00:00 9,8 5,9 24 13 - - ZO 1018,6 19 0,0

tt = temperatuur
td = dauwpunt
ff = windsnelheid
fx = windstoten
dd = windrichting
ppp = luchtdruk
vv = zicht
rr = neerslag

Weerstations in de omgeving